Stations météo

réclame
Mon MeteoGroup
Sevilla/San Pablo, Espagne (8391): Température de l'air & dewpoint: 17.10.2018 07:00:00 - 23.10.2018 07:00:00 (CEST)Sevilla/San Pablo, Espagne (8391): Vitesse du vent: 17.10.2018 07:00:00 - 23.10.2018 07:00:00 (CEST)Sevilla/San Pablo, Espagne (8391): Direction du vent: 17.10.2018 07:00:00 - 23.10.2018 07:00:00 (CEST)Sevilla/San Pablo, Espagne (8391): reduced air pressure: 17.10.2018 07:00:00 - 23.10.2018 07:00:00 (CEST)Sevilla/San Pablo, Espagne (8391): visibility: 17.10.2018 07:00:00 - 23.10.2018 07:00:00 (CEST)
Date & Time tt [°C] td [°C] ff [km/h] ff [knt] dd ppp [hPa] vv [km]
23.10.2018 07:00:00 17,1 16,1 8 4 NW 1021,4 -
23.10.2018 06:00:00 17,7 16,7 0 0 N 1021,0 -
23.10.2018 05:00:00 17,8 17,0 5 3 ENE 1020,3 10
23.10.2018 04:00:00 18,1 16,8 5 3 W 1021,3 -
23.10.2018 03:00:00 18,0 16,7 0 0 N 1021,0 -
23.10.2018 02:00:00 18,2 17,0 5 3 SSE 1020,8 20
23.10.2018 01:00:00 18,4 17,1 0 0 N 1021,3 -
23.10.2018 00:00:00 18,9 17,4 0 0 N 1020,8 -
22.10.2018 23:00:00 19,4 17,7 0 0 N 1020,4 20
22.10.2018 22:00:00 19,6 17,4 5 3 ESE 1019,9 -
22.10.2018 21:00:00 20,9 17,7 5 3 SE 1019,7 -
22.10.2018 20:00:00 22,5 17,8 8 4 ENE 1019,1 25
22.10.2018 19:00:00 25,0 16,2 9 5 NE 1018,7 -
22.10.2018 18:00:00 25,6 16,1 8 4 NE 1018,6 -
22.10.2018 17:00:00 26,0 15,5 9 5 NE 1018,6 30
22.10.2018 16:00:00 25,2 15,7 11 6 NNE 1018,7 -
22.10.2018 15:00:00 25,0 15,3 8 4 NNE 1019,4 -
22.10.2018 14:00:00 24,2 16,3 9 5 NNE 1020,2 30
22.10.2018 13:00:00 23,4 16,0 15 8 ENE 1020,4 -
22.10.2018 12:00:00 22,4 16,0 13 7 ENE 1020,5 -
22.10.2018 11:00:00 19,9 15,9 16 9 NE 1020,5 25
22.10.2018 10:00:00 17,1 15,8 13 7 NE 1020,3 -
22.10.2018 09:00:00 15,5 14,9 11 6 NNE 1019,6 -
22.10.2018 08:00:00 15,8 15,0 9 5 NE 1019,6 20
22.10.2018 07:00:00 16,1 15,3 9 5 NNE 1019,6 -
22.10.2018 06:00:00 15,8 15,2 5 3 N 1019,2 -
22.10.2018 05:00:00 15,7 14,9 11 6 NNE 1019,2 20
22.10.2018 04:00:00 15,8 15,2 5 3 N 1019,5 -
22.10.2018 03:00:00 16,3 15,7 5 3 N 1019,6 -
22.10.2018 02:00:00 16,4 15,8 8 4 NNE 1019,6 20
22.10.2018 01:00:00 16,7 15,9 4 2 N 1019,7 -
22.10.2018 00:00:00 17,2 16,2 2 1 NNE 1019,6 -
21.10.2018 23:00:00 17,7 16,6 4 2 NNE 1018,8 30
21.10.2018 22:00:00 18,2 16,9 4 2 NE 1018,4 -
21.10.2018 21:00:00 18,8 17,3 9 5 NE 1018,2 -
21.10.2018 20:00:00 19,9 17,0 9 5 NE 1017,8 30
21.10.2018 19:00:00 21,8 15,8 5 3 E 1017,2 -
21.10.2018 18:00:00 23,0 14,6 11 6 SE 1017,3 -
21.10.2018 17:00:00 22,9 16,7 18 10 ESE 1017,6 30
21.10.2018 16:00:00 21,8 16,0 8 4 E 1017,3 -
21.10.2018 15:00:00 22,1 16,0 16 9 ESE 1017,9 -
21.10.2018 14:00:00 19,8 17,1 18 10 E 1018,5 20
21.10.2018 13:00:00 18,3 16,5 21 11 E 1019,0 -
21.10.2018 12:00:00 17,6 16,1 13 7 E 1019,2 -
21.10.2018 11:00:00 17,2 15,9 9 5 NE 1018,6 10
21.10.2018 10:00:00 16,8 15,7 13 7 ENE 1017,7 -
21.10.2018 09:00:00 16,5 15,5 18 10 NE 1017,2 -
21.10.2018 08:00:00 16,4 15,8 11 6 NE 1016,7 15
21.10.2018 07:00:00 16,2 15,6 15 8 NE 1016,5 -
21.10.2018 06:00:00 15,9 15,4 11 6 NNE 1016,3 -
21.10.2018 05:00:00 15,7 15,2 8 4 NNE 1016,3 20
21.10.2018 04:00:00 15,7 15,1 4 2 NNW 1016,3 -
21.10.2018 03:00:00 15,9 15,3 5 3 N 1016,2 -
21.10.2018 02:00:00 15,6 14,8 0 0 N 1016,4 15
21.10.2018 01:00:00 15,6 14,6 0 0 N 1016,7 -
21.10.2018 00:00:00 15,7 14,7 8 4 ENE 1016,5 -
20.10.2018 23:00:00 15,7 14,2 11 6 ENE 1016,2 20
20.10.2018 22:00:00 15,9 14,6 13 7 ENE 1015,5 -
20.10.2018 21:00:00 15,6 14,8 21 11 ENE 1015,6 -
20.10.2018 20:00:00 15,8 14,5 22 12 ENE 1015,5 30
20.10.2018 19:00:00 15,0 14,0 11 6 E 1015,7 -
20.10.2018 18:00:00 15,1 13,8 16 9 NW 1015,0 -
20.10.2018 17:00:00 16,2 14,7 15 8 W 1015,7 30
20.10.2018 16:00:00 16,4 14,3 8 4 NW 1014,8 -
20.10.2018 15:00:00 17,2 13,3 0 0 N 1015,2 -
20.10.2018 14:00:00 17,4 13,3 15 8 NE 1015,2 30
20.10.2018 13:00:00 16,6 13,5 11 6 NE 1015,8 -
20.10.2018 12:00:00 17,2 12,1 18 10 E 1015,7 -
20.10.2018 11:00:00 17,3 12,5 22 12 ENE 1014,9 30
20.10.2018 10:00:00 15,6 12,3 15 8 ENE 1014,5 -
20.10.2018 09:00:00 14,5 12,0 16 9 ENE 1014,3 -
20.10.2018 08:00:00 13,5 11,4 15 8 NE 1014,1 30
20.10.2018 07:00:00 12,8 11,4 18 10 NNE 1013,7 -
20.10.2018 06:00:00 13,8 11,5 15 8 NE 1013,6 -
20.10.2018 05:00:00 14,0 11,5 11 6 NE 1013,7 20
20.10.2018 04:00:00 14,0 11,3 13 7 ENE 1013,9 -
20.10.2018 03:00:00 14,5 11,5 8 4 ENE 1013,8 -
20.10.2018 02:00:00 15,0 11,4 13 7 ENE 1013,9 20
20.10.2018 01:00:00 14,5 12,4 11 6 N 1013,8 -
20.10.2018 00:00:00 15,2 12,0 11 6 E 1014,0 -
19.10.2018 23:00:00 15,2 12,3 11 6 E 1014,0 30
19.10.2018 22:00:00 16,1 11,9 9 5 ESE 1013,5 -
19.10.2018 21:00:00 16,9 11,6 8 4 ESE 1013,3 -
19.10.2018 20:00:00 18,5 12,3 9 5 ESE 1012,4 30
19.10.2018 19:00:00 20,8 11,1 13 7 ESE 1011,3 -
19.10.2018 18:00:00 22,7 9,4 16 9 ESE 1011,0 -
19.10.2018 17:00:00 22,8 9,6 16 9 ESE 1010,8 30
19.10.2018 16:00:00 22,5 9,7 15 8 E 1010,8 -
19.10.2018 15:00:00 21,2 11,6 16 9 NE 1011,2 -
19.10.2018 14:00:00 20,1 12,8 18 10 NE 1011,7 30
19.10.2018 13:00:00 18,7 12,1 18 10 ENE 1011,9 -
19.10.2018 12:00:00 17,7 12,0 16 9 ENE 1011,9 -
19.10.2018 11:00:00 16,6 11,6 18 10 E 1011,9 30
19.10.2018 10:00:00 14,8 12,2 13 7 ENE 1011,4 -
19.10.2018 09:00:00 12,9 12,1 8 4 ENE 1011,0 -
19.10.2018 08:00:00 13,3 12,2 9 5 NE 1010,6 20
19.10.2018 07:00:00 13,6 12,2 11 6 NE 1010,3 -
19.10.2018 06:00:00 13,7 12,6 11 6 NNE 1010,2 -
19.10.2018 05:00:00 14,0 12,4 9 5 NE 1010,1 20
19.10.2018 04:00:00 13,9 12,3 9 5 NE 1010,8 -
19.10.2018 03:00:00 13,8 12,0 8 4 N 1010,8 -
19.10.2018 02:00:00 14,0 11,9 8 4 E 1010,7 20
19.10.2018 01:00:00 14,2 12,2 13 7 NE 1010,9 -
19.10.2018 00:00:00 14,4 12,3 15 8 ENE 1011,1 -
18.10.2018 23:00:00 14,5 12,4 15 8 NE 1011,1 20
18.10.2018 22:00:00 14,8 13,0 13 7 NNE 1010,4 -
18.10.2018 21:00:00 14,9 12,7 15 8 ENE 1010,0 -
18.10.2018 20:00:00 15,0 12,7 15 8 ENE 1009,4 20
18.10.2018 19:00:00 15,3 12,9 16 9 ENE 1008,6 -
18.10.2018 18:00:00 15,6 12,3 16 9 ENE 1008,4 -
18.10.2018 17:00:00 15,5 12,0 18 10 ENE 1008,1 20
18.10.2018 16:00:00 15,3 11,9 11 6 E 1008,1 -
18.10.2018 15:00:00 15,0 13,2 15 8 ENE 1007,9 -
18.10.2018 14:00:00 14,8 13,3 9 5 E 1008,3 5
18.10.2018 13:00:00 15,2 13,0 13 7 E 1008,4 -
18.10.2018 12:00:00 15,5 12,8 13 7 NNE 1008,1 -
18.10.2018 11:00:00 14,8 12,3 8 4 NNE 1008,2 9
18.10.2018 10:00:00 13,7 12,8 16 9 NNE 1008,3 -
18.10.2018 09:00:00 13,7 12,8 9 5 NW 1008,1 -
18.10.2018 08:00:00 14,1 12,8 39 21 WNW 1007,2 5
18.10.2018 07:00:00 17,5 16,2 8 4 S 1007,1 -
18.10.2018 06:00:00 18,0 16,3 8 4 S 1007,5 -
18.10.2018 05:00:00 18,0 16,3 5 3 S 1008,2 20
18.10.2018 04:00:00 17,9 16,2 8 4 S 1009,4 -
18.10.2018 03:00:00 17,9 16,1 5 3 S 1010,3 -
18.10.2018 02:00:00 17,6 16,1 11 6 S 1010,9 30
18.10.2018 01:00:00 18,0 16,2 11 6 S 1012,1 -
18.10.2018 00:00:00 18,5 15,9 11 6 S 1012,7 -
17.10.2018 23:00:00 19,2 15,5 9 5 SSW 1013,4 30
17.10.2018 22:00:00 20,0 14,8 9 5 SW 1013,4 -
17.10.2018 21:00:00 20,8 15,1 15 8 SW 1013,3 -
17.10.2018 20:00:00 22,4 14,8 24 13 SW 1013,1 30
17.10.2018 19:00:00 25,7 10,6 13 7 SW 1012,7 -
17.10.2018 18:00:00 26,8 9,6 4 2 SSW 1013,2 -
17.10.2018 17:00:00 27,0 11,5 4 2 WNW 1013,8 30
17.10.2018 16:00:00 25,7 12,4 4 2 NNW 1014,4 -
17.10.2018 15:00:00 24,9 13,0 4 2 ENE 1015,3 -
17.10.2018 14:00:00 23,8 13,3 5 3 NE 1016,3 30
17.10.2018 13:00:00 22,5 14,2 8 4 ENE 1017,2 -
17.10.2018 12:00:00 20,8 13,6 9 5 ENE 1017,4 -
17.10.2018 11:00:00 19,0 14,3 8 4 NE 1017,7 25
17.10.2018 10:00:00 16,8 14,3 5 3 NE 1017,7 -
17.10.2018 09:00:00 14,5 13,4 5 3 NE 1017,0 -
17.10.2018 08:00:00 13,9 12,9 4 2 N 1017,0 30
17.10.2018 07:00:00 14,2 13,1 4 2 ESE 1016,8 -

tt = Température de l'air
td = dewpoint
ff = Vitesse du vent
dd = Direction du vent
ppp = reduced air pressure
vv = visibility

stations d'obs. à proximité